Weather in Vozhi

Russia / Republic of Tatarstan     55°06′05″N   49°35′17″E
temp.,
°C
wind,
m/s
gust,
m/s
humid.,
%
clouds,
%
prec.,
mm/h
press.,
hPa
HPBL,
m
17 april, sat
sat1700:00+7ne511755 0.0 1024265
03:00+6ne410785 0.0 1025228
06:00+5ne511750 0.0 1026309
09:00+10ne69554 0.0 1026561
12:00+13ne67405 0.0 1025895
15:00+14ne66364 0.0 10241082
18:00+11ne58450 0.0 1024221
21:00+7ene49550 0.0 1024155
18 april, sun
sun1800:00+5ne49660 0.0 1024159
03:00+4ne37710 0.0 1024111
06:00+4ne49730 0.0 1024227
09:00+10ene68500 0.0 1024811
12:00+12ene67410 0.0 10231392
15:00+13ene673929 0.0 10231649
18:00+11ene71152100 0.0 1023567
21:00+7ene7125897 0.0 1025589
19 april, mon
mon1900:00+5ene61252100 0.0 1026478
03:00+4ene61264100 0.0 1027537
06:00+3ene7135783 0.0 1028634
09:00+5ene810515 0.0 10291038
12:00+8e8104873 0.0 10291442
15:00+8e794580 0.0 10291683
18:00+7e595488 0.0 10301297
21:00+5ene5115479 0.0 1031423
20 april, tue
tue2000:00+3e613495 0.0 1031394
03:00+1e510615 0.0 1032256
06:00+2ese512610 0.0 1033492
09:00+6ese79400 0.0 1032936
12:00+9ese79310 0.0 10311339
15:00+10ese8102713 0.0 10291416
18:00+9ese6113493 0.0 1029593
21:00+6ese6144193 0.0 1029475
21 april, wed
wed2100:00+5se6154691 0.0 1028484
03:00+4se71548100 0.0 1028462
06:00+4se81750100 0.0 1027531
09:00+8se91539100 0.0 1026761
12:00+10sse91236100 0.0 1026984
15:00+10sse71245100 0.1 1026984
18:00+7sse61267100 0.8 1028804
21:00+6sse61475100 1.7 1028749